When you browse on this site, cookies collect data to enhance your experience and personalize the content and advertising you see.
Visit our Privacy Policy to learn more. By continuing to use the site, you agree to this use of cookies and data.
  • în România
  • Lista ţărilor
  • Pe 7 zile
  • Temperatura apei
  • Hartă satelitară
  • Meteo pe hartă
  • Widget-uri
  • user-avatar
    Intrare

    Meteo pe oră la Senkovo

    Astăzi, 18 Decembrie, Marţi

    Timp Temperatura Precipitaţii Vânt Presiune Umiditate
    00:00 -12°C° 0 mm 2 m/s 753 mmHg 92%
    01:00 -13°C° 0 mm 2 m/s 753 mmHg 92%
    02:00 -12°C° 0 mm 2 m/s 753 mmHg 91%
    03:00 -13°C° 0 mm 2 m/s 753 mmHg 91%
    04:00 -13°C° 0 mm 2 m/s 753 mmHg 91%
    05:00 -13°C° 0 mm 2 m/s 753 mmHg 91%
    06:00 -13°C° 0 mm 2 m/s 753 mmHg 90%
    07:00 -13°C° 0 mm 2 m/s 753 mmHg 90%
    08:00 -13°C° 0 mm 2 m/s 753 mmHg 89%
    09:00 -13°C° 0 mm 2 m/s 753 mmHg 88%
    10:00 -12°C° 0 mm 2 m/s 753 mmHg 86%
    11:00 -12°C° 0 mm 2 m/s 753 mmHg 85%
    12:00 -12°C° 0 mm 2 m/s 753 mmHg 84%
    13:00 -10°C° 0 mm 2 m/s 753 mmHg 84%
    14:00 -12°C° 0 mm 2 m/s 753 mmHg 83%
    15:00 -12°C° 0 mm 2 m/s 753 mmHg 84%
    16:00 -12°C° 0 mm 2 m/s 753 mmHg 85%
    17:00 -12°C° 0 mm 2 m/s 753 mmHg 86%
    18:00 -12°C° 0 mm 2 m/s 754 mmHg 87%
    19:00 -12°C° 0 mm 2 m/s 754 mmHg 88%
    20:00 -12°C° 0 mm 2 m/s 754 mmHg 88%
    21:00 -12°C° 0 mm 2 m/s 754 mmHg 89%
    22:00 -12°C° 0 mm 2 m/s 754 mmHg 89%
    23:00 -12°C° 0 mm 2 m/s 754 mmHg 89%

    Mâine, 19 Decembrie, Miercuri

    Timp Temperatura Precipitaţii Vânt Presiune Umiditate
    00:00 -12°C° 0 mm 2 m/s 754 mmHg 89%
    01:00 -12°C° 0 mm 2 m/s 754 mmHg 90%
    02:00 -12°C° 0 mm 2 m/s 754 mmHg 90%
    03:00 -12°C° 0 mm 2 m/s 754 mmHg 90%
    04:00 -12°C° 0 mm 2 m/s 754 mmHg 91%
    05:00 -12°C° 0 mm 2 m/s 754 mmHg 91%
    06:00 -12°C° 0 mm 2 m/s 754 mmHg 91%
    07:00 -12°C° 0 mm 2 m/s 754 mmHg 91%
    08:00 -12°C° 0 mm 2 m/s 754 mmHg 92%
    09:00 -12°C° 0 mm 2 m/s 754 mmHg 90%
    10:00 -12°C° 0 mm 2 m/s 755 mmHg 89%
    11:00 -12°C° 0 mm 2 m/s 755 mmHg 88%
    12:00 -12°C° 0 mm 2 m/s 755 mmHg 87%
    13:00 -12°C° 0 mm 2 m/s 754 mmHg 87%
    14:00 -9°C° 0 mm 1 m/s 754 mmHg 86%
    15:00 -10°C° 0 mm 1 m/s 754 mmHg 87%
    16:00 -12°C° 0 mm 2 m/s 754 mmHg 89%
    17:00 -12°C° 0 mm 2 m/s 755 mmHg 90%
    18:00 -13°C° 0 mm 2 m/s 754 mmHg 91%
    19:00 -13°C° 0 mm 2 m/s 754 mmHg 91%
    20:00 -13°C° 0 mm 2 m/s 754 mmHg 92%
    21:00 -11°C° 0 mm 1 m/s 754 mmHg 92%
    22:00 -12°C° 0 mm 1 m/s 754 mmHg 92%
    23:00 -12°C° 0 mm 1 m/s 754 mmHg 92%

    Poimâine, 20 Decembrie, Joi

    Timp Temperatura Precipitaţii Vânt Presiune Umiditate
    00:00 -12°C° 0 mm 1 m/s 754 mmHg 92%
    01:00 -12°C° 0 mm 1 m/s 754 mmHg 92%
    02:00 -12°C° 0 mm 1 m/s 754 mmHg 91%
    03:00 -12°C° 0 mm 1 m/s 754 mmHg 92%
    04:00 -12°C° 0 mm 1 m/s 754 mmHg 93%
    05:00 -13°C° 0 mm 1 m/s 754 mmHg 93%
    06:00 -13°C° 0 mm 1 m/s 754 mmHg 93%
    07:00 -13°C° 0 mm 1 m/s 754 mmHg 94%
    08:00 -13°C° 0 mm 1 m/s 754 mmHg 94%
    09:00 -13°C° 0 mm 1 m/s 754 mmHg 92%
    10:00 -12°C° 0 mm 1 m/s 754 mmHg 90%
    11:00 -12°C° 0 mm 1 m/s 754 mmHg 88%
    12:00 -12°C° 0 mm 1 m/s 754 mmHg 88%
    13:00 -12°C° 0 mm 1 m/s 753 mmHg 87%
    14:00 -11°C° 0 mm 1 m/s 753 mmHg 87%
    15:00 -12°C° 0 mm 1 m/s 753 mmHg 89%
    16:00 -12°C° 0 mm 1 m/s 753 mmHg 92%
    17:00 -12°C° 0 mm 1 m/s 753 mmHg 94%
    18:00 -13°C° 0 mm 1 m/s 753 mmHg 94%
    19:00 -13°C° 0 mm 1 m/s 753 mmHg 95%
    20:00 -15°C° 0 mm 2 m/s 753 mmHg 95%
    21:00 -14°C° 0 mm 2 m/s 752 mmHg 95%
    22:00 -14°C° 0 mm 2 m/s 752 mmHg 94%
    23:00 -14°C° 0 mm 2 m/s 752 mmHg 94%

    21 Decembrie, Vineri

    Timp Temperatura Precipitaţii Vânt Presiune Umiditate
    00:00 -14°C° 0 mm 2 m/s 752 mmHg 93%
    01:00 -13°C° 0 mm 2 m/s 751 mmHg 93%
    02:00 -13°C° 0 mm 2 m/s 751 mmHg 92%
    03:00 -12°C° 0 mm 2 m/s 751 mmHg 92%
    04:00 -12°C° 0 mm 2 m/s 750 mmHg 91%
    05:00 -13°C° 0 mm 3 m/s 750 mmHg 90%
    06:00 -12°C° 0 mm 3 m/s 750 mmHg 90%
    07:00 -12°C° 0 mm 3 m/s 749 mmHg 89%
    08:00 -10°C° 0 mm 3 m/s 749 mmHg 89%
    09:00 -10°C° 0 mm 3 m/s 749 mmHg 88%
    10:00 -10°C° 0 mm 3 m/s 749 mmHg 87%
    11:00 -10°C° 0 mm 4 m/s 748 mmHg 86%
    12:00 -10°C° 0 mm 4 m/s 748 mmHg 86%
    13:00 -9°C° 0 mm 3 m/s 747 mmHg 86%
    14:00 -9°C° 0 mm 3 m/s 747 mmHg 86%
    15:00 -10°C° 0.1 mm 4 m/s 746 mmHg 87%
    16:00 -10°C° 0.1 mm 4 m/s 746 mmHg 88%
    17:00 -10°C° 0.1 mm 4 m/s 745 mmHg 90%
    18:00 -10°C° 0.2 mm 4 m/s 745 mmHg 90%
    19:00 -9°C° 0.2 mm 4 m/s 744 mmHg 90%
    20:00 -9°C° 0.2 mm 4 m/s 744 mmHg 90%
    21:00 -9°C° 0.1 mm 4 m/s 744 mmHg 90%
    22:00 -9°C° 0.1 mm 4 m/s 743 mmHg 90%
    23:00 -8°C° 0.1 mm 4 m/s 743 mmHg 90%

    22 Decembrie, Sâmbătă

    Timp Temperatura Precipitaţii Vânt Presiune Umiditate
    00:00 -8°C° 0.1 mm 4 m/s 743 mmHg 90%
    01:00 -8°C° 0.1 mm 4 m/s 742 mmHg 90%
    02:00 -8°C° 0.1 mm 4 m/s 742 mmHg 91%
    03:00 -7°C° 0.1 mm 4 m/s 741 mmHg 91%
    04:00 -7°C° 0.1 mm 4 m/s 741 mmHg 91%
    05:00 -7°C° 0.1 mm 4 m/s 741 mmHg 92%
    06:00 -7°C° 0 mm 4 m/s 740 mmHg 92%
    07:00 -7°C° 0 mm 4 m/s 740 mmHg 92%
    08:00 -7°C° 0 mm 4 m/s 740 mmHg 92%
    09:00 -5°C° 0 mm 4 m/s 740 mmHg 92%
    10:00 -5°C° 0 mm 4 m/s 740 mmHg 91%
    11:00 -5°C° 0 mm 4 m/s 740 mmHg 91%
    12:00 -4°C° 0 mm 3 m/s 739 mmHg 90%
    13:00 -4°C° 0 mm 3 m/s 739 mmHg 90%
    14:00 -4°C° 0 mm 3 m/s 739 mmHg 90%
    15:00 -4°C° 0 mm 3 m/s 738 mmHg 91%
    16:00 -4°C° 0 mm 3 m/s 738 mmHg 91%
    17:00 -4°C° 0 mm 3 m/s 738 mmHg 92%
    18:00 -4°C° 0 mm 3 m/s 738 mmHg 91%
    19:00 -4°C° 0 mm 3 m/s 738 mmHg 91%
    20:00 -4°C° 0 mm 4 m/s 738 mmHg 91%
    21:00 -4°C° 0 mm 4 m/s 737 mmHg 91%
    22:00 -5°C° 0 mm 4 m/s 737 mmHg 91%
    23:00 -5°C° 0 mm 4 m/s 737 mmHg 91%

    23 Decembrie, Duminică

    Timp Temperatura Precipitaţii Vânt Presiune Umiditate
    00:00 -5°C° 0 mm 4 m/s 736 mmHg 91%
    01:00 -5°C° 0 mm 4 m/s 736 mmHg 91%
    02:00 -5°C° 0 mm 4 m/s 736 mmHg 91%
    03:00 -7°C° 0 mm 4 m/s 736 mmHg 90%
    04:00 -7°C° 0 mm 4 m/s 735 mmHg 90%
    05:00 -7°C° 0 mm 4 m/s 735 mmHg 89%
    06:00 -7°C° 0.1 mm 4 m/s 735 mmHg 89%
    07:00 -7°C° 0.1 mm 4 m/s 735 mmHg 89%
    08:00 -7°C° 0.1 mm 4 m/s 735 mmHg 89%
    09:00 -7°C° 0.1 mm 4 m/s 735 mmHg 89%
    10:00 -7°C° 0.1 mm 4 m/s 735 mmHg 88%
    11:00 -7°C° 0.1 mm 4 m/s 735 mmHg 88%
    12:00 -7°C° 0.1 mm 4 m/s 735 mmHg 88%
    13:00 -7°C° 0.1 mm 4 m/s 735 mmHg 88%
    14:00 -6°C° 0.1 mm 3 m/s 735 mmHg 88%
    15:00 -6°C° 0.1 mm 3 m/s 735 mmHg 89%
    16:00 -7°C° 0.1 mm 3 m/s 735 mmHg 89%
    17:00 -7°C° 0.1 mm 3 m/s 735 mmHg 90%
    18:00 -7°C° 0.1 mm 3 m/s 735 mmHg 90%
    19:00 -7°C° 0.1 mm 3 m/s 735 mmHg 90%
    20:00 -8°C° 0.1 mm 3 m/s 735 mmHg 90%
    21:00 -8°C° 0 mm 3 m/s 735 mmHg 91%
    22:00 -8°C° 0 mm 3 m/s 735 mmHg 91%
    23:00 -8°C° 0 mm 3 m/s 734 mmHg 92%
    Arată mai mult